Back to catalog

SL-16 DEB

AliveLEO
NORAD 22619·DEBRIS·🇷🇺 Russia

Launched Mar 26, 1993 from Baikonur Cosmodrome

Loading…

Next Passes (next 24 hours)

TLE

FreshSource: Space-Track

Epoch: Sep 14, 2026, 11:15 UTC

1 22619U 93016AD  26257.46909315 -.00000026  00000-0  15343-4 0  9997
2 22619  70.9992  65.8882 0185621  16.7470  13.5177 13.73896122677368

Track SL-16 DEB in real time with AllMySat

Download on the App Store